Location: Kunchanapalle
(16.4623°N, 80.6176°E)
Time: 18:49:40
(UTC+00:00)

COSMOS 2455 - Pass Details

Date: 13 August 2020
Orbit: 898 x 911 km, 67.1° (Epoch: 20 September)

Event Time Altitude Azimuth Distance (km) Brightness Sun altitude
Rises 23:30:25 0° 184° (S) 3,506 5.7 -12.5°
Reaches altitude 10° 23:33:02 10° 178° (S) 2,569 5.1 -11.9°
Maximum altitude 23:38:37 42° 108° (ESE) 1,254 4.1 -10.6°
Drops below altitude 10° 23:44:13 10° 39° (NE) 2,581 6.2 -9.4°
Sets 23:46:51 0° 32° (NNE) 3,525 6.8 -8.8°
